FW3769 Weather Reports


time (UTC)temp
C
wind
direction
speed
KPH
gust
KPH
rain 1hr
cm
rain 24hr
cm
rain mn
cm
humidity
%
barometer
mb
20260507211050 17 270 0.0 0.0 0.00 0.03 0.03 28 1019.2
20260507210547 16 54 0.0 0.0 0.00 0.03 0.03 29 1019.2
20260507210044 17 270 0.0 0.0 0.00 0.03 0.03 28 1019.2
20260507205540 16 84 0.0 0.0 0.00 0.03 0.03 29 1019.2
20260507205037 16 30 0.0 0.0 0.00 0.03 0.03 28 1019.2
20260507204533 17 20 0.0 0.0 0.00 0.03 0.03 29 1019.2
20260507204031 16 24 0.0 0.0 0.00 0.03 0.03 29 1019.5
20260507203529 16 66 0.0 0.0 0.00 0.03 0.03 30 1019.5
20260507203026 17 318 0.0 0.0 0.00 0.03 0.03 28 1019.5
20260507202521 17 9 0.0 0.0 0.00 0.03 0.03 29 1020.0
20260507202018 17 352 0.0 0.0 0.00 0.03 0.03 29 1020.0
20260507201514 17 324 0.0 0.0 0.00 0.03 0.03 31 1020.0
20260507201010 17 312 0.0 0.0 0.00 0.03 0.03 29 1020.4
20260507200505 16 186 0.0 0.0 0.00 0.03 0.03 32 1020.4
20260507200001 16 318 0.0 0.0 0.00 0.03 0.03 30 1020.4
20260507195459 16 352 0.0 0.0 0.00 0.03 0.03 31 1020.4
20260507194956 15 90 0.0 0.0 0.00 0.03 0.03 30 1020.4
20260507194453 16 334 0.0 0.0 0.00 0.03 0.03 28 1020.4
20260507193948 16 330 0.0 0.0 0.00 0.03 0.03 31 1020.4
20260507193446 16 65 0.0 0.0 0.00 0.03 0.03 29 1020.4
20260507192942 16 336 0.0 0.0 0.00 0.03 0.03 31 1020.4
20260507192438 16 231 0.0 0.0 0.00 0.03 0.03 32 1020.4
20260507191936 15 1 0.0 0.0 0.00 0.03 0.03 29 1020.4
20260507191432 15 330 0.0 0.0 0.00 0.03 0.03 31 1020.8
20260507190928 16 36 0.0 0.0 0.00 0.03 0.03 29 1020.8
20260507190426 16 84 0.0 0.0 0.00 0.03 0.03 29 1020.8
20260507185925 16 312 0.0 0.0 0.00 0.03 0.03 28 1020.8
20260507185422 16 42 0.0 0.0 0.00 0.03 0.03 27 1020.8
20260507184919 16 0 0.0 0.0 0.00 0.03 0.03 26 1020.8
20260507184416 16 6 0.0 0.0 0.00 0.03 0.03 27 1020.8
20260507183914 16 36 0.0 0.0 0.00 0.03 0.03 26 1020.8
20260507183410 15 214 0.0 0.0 0.00 0.03 0.03 27 1020.8
20260507182908 16 9 0.0 0.0 0.00 0.03 0.03 25 1020.8
20260507182403 15 314 0.0 0.0 0.00 0.03 0.03 27 1020.8
20260507181900 15 39 0.0 0.0 0.00 0.03 0.03 28 1020.8
20260507181356 15 12 0.0 0.0 0.00 0.03 0.03 29 1020.8
20260507180853 15 48 0.0 0.0 0.00 0.03 0.03 28 1020.8
20260507180350 15 39 0.0 0.0 0.00 0.03 0.03 27 1020.8
20260507175845 15 84 0.0 0.0 0.00 0.03 0.03 27 1020.8
20260507175343 15 334 0.0 0.0 0.00 0.03 0.03 27 1020.8
20260507174840 15 96 0.0 0.0 0.00 0.03 0.03 27 1020.8
20260507174337 15 328 0.0 0.0 0.00 0.03 0.03 28 1021.3
20260507173835 15 181 0.0 0.0 0.00 0.03 0.03 26 1021.3
20260507173332 15 30 0.0 0.0 0.00 0.03 0.03 26 1021.3
20260507172828 14 0 0.0 0.0 0.00 0.03 0.03 26 1021.6
20260507172325 14 20 0.0 0.0 0.00 0.03 0.03 29 1021.6
20260507171821 14 324 0.0 0.0 0.00 0.03 0.03 28 1021.6
20260507171318 14 30 0.0 0.0 0.00 0.03 0.03 28 1021.3
20260507170815 14 348 0.0 0.0 0.00 0.03 0.03 27 1021.3
20260507170311 14 354 0.0 0.0 0.00 0.03 0.03 25 1021.3
20260507165807 14 330 0.0 0.0 0.00 0.03 0.03 26 1021.6
20260507165306 15 42 0.0 0.0 0.00 0.03 0.03 28 1021.6
20260507164759 14 318 0.0 0.0 0.00 0.03 0.03 28 1021.6
20260507164257 13 12 0.0 0.0 0.00 0.03 0.03 28 1021.3
20260507163754 13 36 0.0 0.0 0.00 0.03 0.03 28 1021.3
20260507163251 13 14 0.0 0.0 0.00 0.03 0.03 26 1021.3
20260507162747 13 278 0.0 0.0 0.00 0.03 0.03 26 1021.6
20260507162243 13 234 0.0 0.0 0.00 0.03 0.03 28 1021.6
20260507161740 13 198 0.0 0.0 0.00 0.03 0.03 29 1021.6
20260507161237 13 276 0.0 0.0 0.00 0.03 0.03 28 1021.6
20260507160732 13 6 0.0 0.0 0.00 0.03 0.03 28 1021.6
20260507160229 13 336 0.0 0.0 0.00 0.03 0.03 29 1021.6
20260507155725 12 306 0.0 0.0 0.00 0.03 0.03 29 1022.1
20260507155221 12 324 0.0 0.0 0.00 0.03 0.03 31 1022.1
20260507154719 12 234 0.0 0.0 0.00 0.03 0.03 32 1022.1
20260507154216 12 348 0.0 0.0 0.00 0.03 0.03 31 1022.1
20260507153712 12 244 0.0 0.0 0.00 0.03 0.03 32 1022.1
20260507153209 12 355 0.0 0.0 0.00 0.03 0.03 33 1022.1
20260507152705 11 9 0.0 0.0 0.00 0.03 0.03 33 1022.1
20260507152201 11 313 0.0 0.0 0.00 0.03 0.03 36 1022.1
20260507151657 11 54 0.0 0.0 0.00 0.03 0.03 37 1022.1
20260507151154 11 162 0.0 0.0 0.00 0.03 0.03 37 1022.5
20260507150651 10 162 0.0 0.0 0.00 0.03 0.03 38 1022.5
20260507150148 10 212 0.0 0.0 0.00 0.03 0.03 39 1022.5
20260507145643 10 300 0.0 0.0 0.03 0.03 0.03 40 1022.5
20260507145141 10 312 0.0 0.0 0.03 0.03 0.03 41 1022.5
20260507144637 9 343 0.0 0.0 0.03 0.03 0.03 40 1022.5
20260507144136 9 356 0.0 0.0 0.00 0.00 0.00 41 1022.1
20260507143632 9 330 0.0 0.0 0.00 0.00 0.00 43 1022.1
20260507143129 9 30 0.0 0.0 0.00 0.00 0.00 43 1022.1
20260507142624 8 348 0.0 0.0 0.00 0.00 0.00 44 1022.5
20260507142122 7 341 0.0 0.0 0.00 0.00 0.00 45 1022.5
20260507141618 7 344 0.0 0.0 0.00 0.00 0.00 47 1022.5
20260507141115 6 348 0.0 0.0 0.00 0.00 0.00 50 1022.5
20260507140611 6 312 0.0 0.0 0.00 0.00 0.00 50 1022.5
20260507140109 5 19 0.0 0.0 0.00 0.00 0.00 55 1022.5
20260507135606 5 24 0.0 0.0 0.00 0.00 0.00 59 1022.1
20260507135103 5 10 0.0 0.0 0.00 0.00 0.00 58 1022.1
20260507134559 4 34 0.0 0.0 0.00 0.00 0.00 57 1022.1
20260507134055 4 335 0.0 0.0 0.00 0.00 0.00 58 1022.1
20260507133551 3 0 0.0 0.0 0.00 0.00 0.00 58 1022.1
20260507133049 3 36 0.0 0.0 0.00 0.00 0.00 60 1022.1
20260507132546 2 6 0.0 0.0 0.00 0.00 0.00 62 1021.6
20260507132042 2 9 0.0 0.0 0.00 0.00 0.00 61 1021.6
20260507131539 2 0 0.0 0.0 0.00 0.00 0.00 62 1021.6
20260507131037 2 19 0.0 0.0 0.00 0.00 0.00 62 1022.1
20260507130533 1 336 0.0 0.0 0.00 0.00 0.00 63 1022.1
20260507130032 1 12 0.0 0.0 0.00 0.00 0.00 63 1022.1
20260507125530 1 9 0.0 0.0 0.00 0.00 0.00 63 1022.1
20260507125027 1 12 0.0 0.0 0.00 0.00 0.00 64 1022.1
20260507124523 0 19 0.0 0.0 0.00 0.00 0.00 64 1022.1
20260507124021 0 1 0.0 0.0 0.00 0.00 0.00 64 1021.6
20260507123519 0 11 0.0 0.0 0.00 0.00 0.00 64 1021.6
20260507123015 0 354 0.0 0.0 0.00 0.00 0.00 63 1021.6
20260507122510 0 44 0.0 0.0 0.00 0.00 0.00 63 1021.6
20260507122007 0 9 0.0 0.0 0.00 0.00 0.00 64 1021.6
20260507121502 0 31 0.0 0.0 0.00 0.00 0.00 65 1021.6
20260507120958 0 14 0.0 0.0 0.00 0.00 0.00 66 1021.6
20260507120455 0 0 0.0 0.0 0.00 0.00 0.00 65 1021.6
20260507115952 0 357 0.0 0.0 0.00 0.00 0.00 66 1021.6
20260507115448 0 13 0.0 0.0 0.00 0.00 0.00 66 1021.6
20260507114944 0 125 0.0 0.0 0.00 0.00 0.00 66 1021.6
20260507114440 0 324 0.0 0.0 0.00 0.00 0.00 65 1021.6
20260507113938 0 36 0.0 0.0 0.00 0.00 0.00 66 1021.6
20260507113434 0 357 0.0 0.0 0.00 0.00 0.00 65 1021.6
20260507112932 0 335 0.0 0.0 0.00 0.00 0.00 66 1022.1
20260507112429 0 24 0.0 0.0 0.00 0.00 0.00 66 1022.1
20260507111926 -1 340 0.0 0.0 0.00 0.00 0.00 67 1022.1
20260507111423 -1 79 0.0 0.0 0.00 0.00 0.00 68 1021.6
20260507110920 0 20 0.0 0.0 0.00 0.00 0.00 65 1021.6
20260507110416 0 58 0.0 0.0 0.00 0.00 0.00 66 1021.6
20260507105913 0 93 0.0 0.0 0.00 0.00 0.00 67 1021.3
20260507105409 -1 96 0.0 0.0 0.00 0.00 0.00 68 1021.3
20260507104906 -1 39 0.0 0.0 0.00 0.00 0.00 68 1021.3
20260507104402 -1 48 0.0 0.0 0.00 0.00 0.00 69 1021.6
20260507103858 -1 34 0.0 0.0 0.00 0.00 0.00 71 1021.6
20260507103355 -1 42 0.0 0.0 0.00 0.00 0.00 71 1021.6
20260507102851 -1 47 0.0 0.0 0.00 0.00 0.00 71 1021.6
20260507102348 -2 353 0.0 0.0 0.00 0.00 0.00 76 1021.6
20260507101844 -2 6 0.0 0.0 0.00 0.00 0.00 76 1021.6
20260507101344 -2 12 0.0 0.0 0.00 0.00 0.00 77 1021.6
20260507100842 -2 3 0.0 0.0 0.00 0.00 0.00 78 1021.6
20260507100340 -2 343 0.0 0.0 0.00 0.00 0.00 78 1021.6
20260507095838 -2 35 0.0 0.0 0.00 0.00 0.00 78 1021.6
20260507095334 -2 12 0.0 0.0 0.00 0.00 0.00 77 1021.6
20260507094831 -2 356 0.0 0.0 0.00 0.00 0.00 76 1021.6
20260507094328 -2 35 0.0 0.0 0.00 0.00 0.00 77 1021.6
20260507093825 -2 72 0.0 0.0 0.00 0.00 0.00 79 1021.6
20260507093324 -2 24 0.0 0.0 0.00 0.00 0.00 78 1021.6
20260507092821 -2 332 0.0 0.0 0.00 0.00 0.00 80 1021.6
20260507092318 -2 324 0.0 0.0 0.00 0.00 0.00 81 1021.6
20260507091814 -2 25 0.0 0.0 0.00 0.00 0.00 81 1021.6
20260507091311 -2 3 0.0 0.0 0.00 0.00 0.00 78 1022.1
20260507090811 -2 12 0.0 0.0 0.00 0.00 0.00 78 1022.1
20260507090308 -2 1 0.0 0.0 0.00 0.00 0.00 79 1022.1
20260507085805 -2 300 0.0 0.0 0.00 0.00 0.00 81 1022.1
20260507085306 -2 35 0.0 0.0 0.00 0.00 0.00 81 1022.1
20260507084800 -1 348 0.0 0.0 0.00 0.00 0.00 79 1022.1
20260507084255 -2 327 0.0 0.0 0.00 0.00 0.00 81 1022.1
20260507083753 -2 6 0.0 0.0 0.00 0.00 0.00 81 1022.1
20260507083249 -2 72 0.0 0.0 0.00 0.00 0.00 83 1022.1
20260507082746 -2 348 0.0 0.0 0.00 0.00 0.00 87 1022.1
20260507082241 -2 275 0.0 0.0 0.00 0.00 0.00 89 1022.1
20260507081738 -2 324 0.0 0.0 0.00 0.00 0.00 90 1022.1
20260507081234 -2 18 0.0 0.0 0.00 0.00 0.00 91 1022.5
20260507080731 -2 327 0.0 0.0 0.00 0.00 0.00 91 1022.5
20260507080227 -2 11 0.0 0.0 0.00 0.00 0.00 91 1022.5
20260507075723 -2 1 0.0 0.0 0.00 0.00 0.00 92 1022.5
20260507075219 -2 16 0.0 0.0 0.00 0.00 0.00 92 1022.5
20260507074715 -2 344 0.0 0.0 0.00 0.00 0.00 92 1022.5
20260507074214 -2 13 0.0 0.0 0.00 0.00 0.00 93 1022.9
20260507073710 -2 341 0.0 0.0 0.00 0.00 0.00 93 1022.9
20260507073207 -2 41 0.0 0.0 0.00 0.00 0.00 93 1022.9
20260507072705 -2 12 0.0 0.0 0.00 0.00 0.00 94 1022.5
20260507072202 -2 22 0.0 0.0 0.00 0.00 0.00 95 1022.5
20260507071700 -2 53 0.0 0.0 0.00 0.00 0.00 96 1022.5
20260507071155 -2 348 0.0 0.0 0.00 0.00 0.00 96 1022.5
20260507070653 -2 35 0.0 0.0 0.00 0.00 0.00 96 1022.5
20260507070149 -2 11 0.0 0.0 0.00 0.00 0.00 97 1022.5
20260507065646 -2 41 0.0 0.0 0.00 0.00 0.00 97 1022.5
20260507065143 -2 19 0.0 0.0 0.00 0.00 0.00 97 1022.5
20260507064640 -2 12 0.0 0.0 0.00 0.00 0.00 97 1022.5
20260507064139 -2 316 0.0 0.0 0.00 0.00 0.00 97 1022.9
20260507063636 -2 14 0.0 0.0 0.00 0.00 0.00 97 1022.9
20260507063133 -2 29 0.0 0.0 0.00 0.00 0.00 97 1022.9
20260507062629 -2 18 0.0 0.0 0.00 0.00 0.00 96 1022.9
20260507062127 -2 40 0.0 0.0 0.00 0.00 0.00 96 1022.9
20260507061625 -2 16 0.0 0.0 0.00 0.00 0.00 96 1022.9
20260507061123 -2 336 0.0 0.0 0.00 0.00 0.00 96 1022.9
20260507060620 -2 64 0.0 0.0 0.00 0.00 0.00 96 1022.9
20260507060117 -2 336 0.0 0.0 0.00 0.00 0.00 95 1022.9
20260507055612 -2 57 0.0 0.0 0.00 0.61 0.61 95 1022.5
20260507055108 -2 6 0.0 0.0 0.00 0.61 0.61 95 1022.5
20260507054604 -1 9 0.0 0.0 0.00 0.61 0.61 95 1022.5
20260507054102 -1 6 0.0 0.0 0.00 0.61 0.61 95 1022.5
20260507053559 -1 22 0.0 0.0 0.00 0.61 0.61 94 1022.5
20260507053058 -1 13 0.0 0.0 0.00 0.61 0.61 94 1022.5
20260507052556 -1 352 0.0 0.0 0.00 0.61 0.61 94 1022.5
20260507052052 -1 140 0.0 0.0 0.00 0.61 0.61 94 1022.5
20260507051549 -1 25 0.0 0.0 0.00 0.61 0.61 94 1022.5
20260507051046 -1 174 0.0 0.0 0.00 0.61 0.61 94 1022.5
20260507050543 -1 168 0.0 0.0 0.00 0.61 0.61 94 1022.5
20260507050039 -1 66 0.0 0.0 0.00 0.61 0.61 94 1022.5
20260507045536 -1 174 0.0 0.0 0.00 0.61 0.61 93 1022.5
20260507045033 -1 145 0.0 0.0 0.00 0.61 0.61 93 1022.5
20260507044530 -1 57 0.0 0.0 0.00 0.61 0.61 93 1022.5
20260507044027 -1 152 0.0 0.0 0.00 0.61 0.61 93 1022.5
20260507043522 0 174 0.0 0.0 0.00 0.61 0.61 93 1022.5
20260507043020 0 150 0.0 0.0 0.00 0.61 0.61 93 1022.5
20260507042516 0 152 0.0 0.0 0.00 0.61 0.61 92 1022.5
20260507042011 0 148 0.0 0.0 0.00 0.61 0.61 92 1022.5
20260507041509 0 165 0.0 0.0 0.00 0.61 0.61 91 1022.5
20260507041006 0 174 0.0 0.0 0.00 0.61 0.61 91 1022.5
20260507040502 0 136 0.0 0.0 0.00 0.61 0.61 90 1022.5
20260507035957 0 159 0.0 0.0 0.00 0.61 0.61 89 1022.5
20260507035454 0 112 0.0 0.0 0.00 0.61 0.61 89 1022.5
20260507034951 0 179 0.0 0.0 0.00 0.61 0.61 89 1022.5
20260507034448 0 186 0.0 0.0 0.00 0.61 0.61 89 1022.5
20260507033946 0 234 0.0 0.0 0.00 0.61 0.61 88 1022.5
20260507033443 0 216 0.0 0.0 0.00 0.61 0.61 88 1022.5
20260507032940 0 190 0.0 0.0 0.00 0.61 0.61 88 1022.1
20260507032437 0 184 0.0 0.0 0.00 0.61 0.61 87 1022.1
20260507031933 0 268 0.0 0.0 0.00 0.61 0.61 86 1022.1
20260507031430 0 150 0.0 0.0 0.00 0.61 0.61 86 1021.6
20260507030926 0 204 0.0 0.0 0.00 0.61 0.61 85 1021.6
20260507030424 0 216 0.0 0.0 0.00 0.61 0.61 84 1021.6
20260507025921 0 190 0.0 0.0 0.00 0.61 0.61 84 1021.6
20260507025418 0 150 0.0 0.0 0.00 0.61 0.61 84 1021.6
20260507024916 0 147 0.0 0.0 0.00 0.61 0.61 83 1021.6
20260507024413 0 141 0.0 0.0 0.00 0.61 0.61 83 1021.6
20260507023909 0 168 0.0 0.0 0.00 0.61 0.61 82 1021.6
20260507023406 0 142 0.0 0.0 0.00 0.61 0.61 83 1021.6
20260507022903 0 168 0.0 0.0 0.00 0.61 0.61 82 1022.1
20260507022359 0 186 0.0 0.0 0.00 0.61 0.61 82 1022.1
20260507021855 0 204 0.0 0.0 0.00 0.61 0.61 81 1022.1
20260507021350 0 150 0.0 0.0 0.00 0.61 0.61 81 1022.1
20260507020848 0 126 0.0 0.0 0.00 0.61 0.61 80 1022.1
20260507020345 0 120 0.0 0.0 0.00 0.61 0.61 79 1022.1
20260507015842 1 168 0.0 0.0 0.00 0.61 0.61 79 1021.6
20260507015340 1 310 0.0 0.0 0.00 0.61 0.61 78 1021.6
20260507014837 1 108 0.0 0.0 0.00 0.61 0.61 77 1021.6
20260507014333 1 224 0.0 0.0 0.00 0.61 0.61 75 1021.6
20260507013830 1 204 0.0 0.0 0.00 0.61 0.61 74 1021.6
20260507013327 2 162 0.0 0.0 0.00 0.61 0.61 72 1021.6
20260507012825 2 174 0.0 0.0 0.00 0.61 0.61 72 1021.6
20260507012320 2 117 0.0 0.0 0.00 0.61 0.61 71 1021.6
20260507011812 2 192 0.0 0.0 0.00 0.61 0.61 72 1021.6
20260507011308 2 162 0.0 0.0 0.00 0.61 0.61 71 1021.6
20260507010808 2 202 0.0 0.0 0.00 0.61 0.61 71 1021.6
20260507010304 2 174 0.0 0.0 0.00 0.61 0.61 72 1021.6
20260507005802 2 198 0.0 0.0 0.03 0.61 0.61 72 1021.6
20260507005258 2 183 0.0 0.0 0.03 0.61 0.61 70 1021.6
20260507004754 3 162 0.0 0.0 0.03 0.61 0.61 68 1021.6
20260507004252 3 139 0.0 0.0 0.03 0.61 0.61 67 1021.3
20260507003748 3 117 0.0 0.0 0.03 0.61 0.61 66 1021.3
20260507003243 3 242 0.0 0.0 0.03 0.61 0.61 64 1021.3
20260507002740 3 203 0.0 0.0 0.03 0.61 0.61 64 1021.3
20260507002236 3 234 0.0 0.0 0.03 0.61 0.61 65 1021.3
20260507001733 3 230 0.0 0.0 0.03 0.61 0.61 66 1021.3
20260507001230 3 245 0.0 0.0 0.03 0.61 0.61 63 1021.6
20260507000727 3 252 0.0 0.0 0.00 0.58 0.58 62 1021.6
20260507000222 4 145 0.0 0.0 0.00 0.58 0.58 62 1021.6
20260506235719 4 246 0.0 0.0 0.05 0.58 0.58 62 1021.3
20260506235214 3 228 0.0 0.0 0.05 0.58 0.58 62 1021.3
20260506234712 3 204 0.0 0.0 0.05 0.58 0.58 64 1021.3
20260506234209 2 222 0.0 0.0 0.05 0.58 0.58 67 1021.3
20260506233707 2 156 0.0 0.0 0.05 0.58 0.58 69 1021.3
20260506233203 2 168 0.0 0.0 0.05 0.58 0.58 65 1021.3
20260506232659 2 192 0.0 0.0 0.03 0.56 0.56 69 1021.6
20260506232154 2 204 0.0 0.0 0.03 0.56 0.56 68 1021.6
20260506231652 2 198 0.0 0.0 0.03 0.56 0.56 68 1021.6
20260506231151 3 217 0.0 0.0 0.03 0.56 0.56 67 1021.3
20260506230647 2 295 0.0 0.0 0.03 0.56 0.56 68 1021.3
20260506230144 2 30 0.0 0.0 0.00 0.53 0.53 71 1021.3
20260506225640 2 36 0.0 0.0 0.05 0.53 0.53 69 1021.3
20260506225137 2 18 0.0 0.0 0.05 0.53 0.53 70 1021.3
20260506224633 2 352 0.0 0.0 0.05 0.53 0.53 70 1021.3
20260506224130 2 356 0.0 0.0 0.05 0.53 0.53 72 1021.6
20260506223626 2 18 0.0 0.0 0.03 0.51 0.51 73 1021.6
20260506223122 2 293 0.0 0.0 0.03 0.51 0.51 74 1021.6
20260506222620 1 0 0.0 0.0 0.03 0.51 0.51 75 1021.6
20260506222116 1 348 0.0 0.0 0.03 0.51 0.51 76 1021.6
20260506221614 2 20 0.0 0.0 0.00 0.48 0.48 75 1021.6
20260506221112 1 41 0.0 0.0 0.00 0.48 0.48 74 1021.3
20260506220607 2 355 0.0 0.0 0.00 0.48 0.48 75 1021.3
20260506220057 1 343 0.0 0.0 0.00 0.48 0.48 74 1021.3
20260506215554 2 319 0.0 0.0 0.13 0.46 0.46 73 1021.3
20260506215049 3 316 0.0 0.0 0.13 0.46 0.46 73 1021.3
20260506214547 2 162 0.0 0.0 0.10 0.43 0.43 70 1021.6
20260506214044 2 354 0.0 0.0 0.08 0.41 0.41 73 1021.6
20260506213543 1 344 0.0 0.0 0.08 0.41 0.41 77 1021.6
20260506213040 1 22 0.0 0.0 0.05 0.38 0.38 78 1021.6
20260506212536 1 356 0.0 0.0 0.05 0.38 0.38 80 1021.6
20260506212031 1 282 0.0 0.0 0.05 0.38 0.38 77 1021.6
20260506211527 1 18 0.0 0.0 0.03 0.36 0.36 78 1022.1